Etusivu
METAR-TAF:

METAR-TAF

Lentoasemat :

Colorado City, Arizona, Yhdysvallat

Leveyspiiri: 36-57-36N, Pituuspiiri: 113-00-50W, korkeus merenpinnasta: 1486 m

Tämänhetkinen sää

Tämä raportti tehtiin 15 minuuttia sitten, kello 11.55 UTC
tyyntä
Lämpötila -6°C
Kosteus 79%
Ilmanpaine 1021 hPa
Näkyvyys: 16.1 km
selkeää

METAR: KAZC 181155Z AUTO 00000KT 10SM CLR M06/M09 A3015 RMK AO2

Aika: 05:10 (12:10 UTC)


TAF: puuttuu

Säähavainnot ja -ennusteet yli 4000 lentoasemalta (METAR- ja TAF-raportit).

Käytössä olevat sääasemat on merkitty karttaan keltaisilla ja punaisilla pisteillä.

Aseta hiiri pisteen päälle nähdäksesi sääaseman nimen.

Klikkaa sitten nähdäksesi säähavainnot ja -ennusteet.

Kartan vaihtaminen: klikkaa mustalla rastilla varustettuja vihreitä pisteitä, niin voit zoomata sisään; viivalla varustettua vihreää pistettä, niin voit zoomata ulos tai vihreitä nuolia, niin pääset viereisille kartoille.


METAR-TAF: